Location: Zengebe
(1.4833°N, 32.5167°E)
Time: 10:00:33
(UTC+00:00)

Cosmos 1689 Rocket - Pass Details

Date: 07 June 2020
Orbit: 368 x 382 km, 97.5° (Epoch: 04 July)

Event Time Altitude Azimuth Distance (km) Brightness Sun altitude
Rises 02:35:29 0° 161° (SSE) 2,217 5.9 -16.3°
Reaches altitude 10° 02:37:27 10° 155° (SSE) 1,368 4.9 -15.8°
Maximum altitude 02:40:17 49° 79° (E) 486 3.0 -15.2°
Drops below altitude 10° 02:43:06 10° 2° (N) 1,368 5.2 -14.5°
Sets 02:45:05 0° 357° (N) 2,217 6.2 -14.1°
